Volver al catálogo

ONEWEB-0438

ActivoComunicacionesPO
NORAD 51634·PAYLOAD·🇬🇧 United Kingdom

Lanzado Feb 10, 2022 desde Guiana Space Centre

Loading…

Próximos Pases (próximas 24 horas)

TLE

ActualizadoSource: CelesTrak SupGP

Época: Sep 15, 2026, 05:07 UTC

1 51634C 22012N   26258.21369630  .00005657  00000+0  16222-1 0  2583
2 51634  87.8894  18.3549 0001844 108.2321 292.0812 13.10382172    12

Sigue ONEWEB-0438 en tiempo real con AllMySat

Download on the App Store